This demonstration page uses our WeatherBlox Daily Observations layout. Learn more.

Left ArrowRight Arrow

Hourly Observations for May 14, 2020

Temp ( °F °C ) Dew Point ( °F °C ) Humidity (%) Winds ( mph kmh ) Pressure ( in mb ) Visibility ( mi km ) Precip ( " mm )
12:52 am 00:52 Clear 66 18.9 62 16.7 87 87 S 13 20 29.87 1011 10 16 0.00 0.00
1:52 am 01:52 Clear 64 17.8 61 16.1 90 90 S 8 13 29.91 1013 10 16 0.00 0.00
2:52 am 02:52 Clear 63 17.2 61 16.1 93 93 SSE 12 19 29.90 1013 10 16 0.00 0.00
3:52 am 03:52 Clear 63 17.2 60 15.6 90 90 SSE 13 20 29.87 1011 10 16 0.00 0.00
4:52 am 04:52 Clear 63 17.2 60 15.6 90 90 SSE 14 22 29.85 1011 10 16 0.00 0.00
5:52 am 05:52 Clear 63 17.2 60 15.6 90 90 SSE 16 26 29.86 1011 10 16 0.00 0.00
6:52 am 06:52 Sunny 64 17.8 61 16.1 90 90 S 10 17 29.89 1012 10 16 0.00 0.00
7:52 am 07:52 Sunny 66 18.9 62 16.7 87 87 S 16 26 29.91 1013 10 16 0.00 0.00
8:52 am 08:52 Sunny 69 20.6 64 17.8 84 84 S 20 31 29.89 1012 10 16 0.00 0.00
9:52 am 09:52 Partly Cloudy 72 22.2 65 18.3 79 79 S 16 26 29.87 1012 10 16 0.00 0.00
10:52 am 10:52 Mostly Sunny 75 23.9 66 18.9 74 74 SSW 21 33 29.87 1012 10 16 0.00 0.00
11:25 am 11:25 Mostly Cloudy 76 24.4 66 18.9 72 72 S 20 31 29.85 1011 10 16 0.00 0.00
11:47 am 11:47 Partly Cloudy 75 24 64 18 69 69 SSW 20 31 29.87 1011 10 16 0.00 0.00
11:52 am 11:52 Partly Cloudy 75 23.9 65 18.3 71 71 S 15 24 29.89 1012 10 16 0.00 0.00
12:15 pm 12:15 Mostly Cloudy 75 23.9 66 18.9 74 74 S 9 15 29.88 1012 10 16 0.00 0.00
12:32 pm 12:32 Mostly Cloudy 74 23.3 65 18.3 74 74 SSE 10 17 29.88 1012 10 16 0.00 0.00
12:52 pm 12:52 Mostly Sunny 75 23.9 66 18.9 74 74 S 13 20 29.89 1012 10 16 0.00 0.00
1:52 pm 13:52 Mostly Sunny 74 23.3 65 18.3 74 74 S 12 19 29.89 1012 10 16 0.00 0.00
2:52 pm 14:52 Mostly Sunny 75 23.9 66 18.9 74 74 SSE 13 20 29.87 1011 10 16 0.00 0.00
3:23 pm 15:23 Partly Cloudy with Nearby Thunderstorms 75 23.9 67 19.4 76 76 SSE 7 11 29.84 1010 10 16 0.00 0.00
3:35 pm 15:35 Mostly Cloudy with Nearby Thunderstorms 73 22.8 67 19.4 81 81 ESE 14 22 29.83 1010 2 2 0.03 0.76
3:45 pm 15:45 Cloudy with Light Rain 73 22.8 67 19.4 81 81 SSE 18 30 29.83 1010 4 6 0.19 4.83
3:52 pm 15:52 Cloudy with Thunderstorms 73 22.8 66 18.9 79 79 SSE 12 19 29.85 1011 10 16 0.19 4.83
4:05 pm 16:05 Cloudy with Thunderstorms 71 21.7 65 18.3 81 81 VRB 6 9 29.84 1010 10 16 0.00 0.00
4:18 pm 16:18 Cloudy with Thunderstorms 74 23.3 66 18.9 76 76 N 6 9 29.83 1010 10 16 0.00 0.00
4:36 pm 16:36 Cloudy with Nearby Thunderstorms 70 21.1 65 18.3 84 84 NNE 13 20 29.85 1011 10 16 0.00 0.00
4:52 pm 16:52 Partly Cloudy 71 21.7 66 18.9 84 84 NNE 6 9 29.85 1011 10 16 0.00 0.00
5:52 pm 17:52 Partly Cloudy 78 25.6 66 18.9 67 67 SSW 13 20 29.84 1010 10 16 0.00 0.00
6:52 pm 18:52 Mostly Cloudy 75 23.9 64 17.8 69 69 S 13 20 29.83 1010 10 16 0.00 0.00
7:52 pm 19:52 Mostly Cloudy 72 22.2 66 18.9 82 82 SE 9 15 29.83 1010 10 16 0.00 0.00
8:52 pm 20:52 Mostly Cloudy 69 20.6 64 17.8 84 84 SSE 13 20 29.83 1010 10 16 0.00 0.00
9:52 pm 21:52 Clear 68 20 65 18.3 90 90 SSE 13 20 29.82 1010 10 16 0.00 0.00
10:52 pm 22:52 Partly Cloudy 69 20.6 65 18.3 87 87 SSE 12 19 29.84 1011 10 16 0.00 0.00
11:52 pm 23:52 Mostly Cloudy 68 20 65 18.3 90 90 SSE 12 19 29.84 1010 10 16 0.00 0.00

Powered by AerisWeather